Besuchen Sie unsere anderen Wetter Stationen:

Template documentation
and downloads

And another site


Select another period ( hide this area )

Einheiten Zeitraum Custom range Directly to
metrisch Englisch Beide
Tägliche Wöchentliche Monatliche Jährlich
use both date-selectors for a custom range
previous Tag
With this date

WeatherUnderground graphs for this period ( click here ) Loading the graph can take up to a minute!


Tägliche Zusammenfassung für Mittwoch 08 Dezember 2021
Zeit Temp. ( °C ) Dew pt. ( °C ) Wind ( km/h ) von Windböen ( km/h ) Luftdruck ( hPa ) Humid.( % ) Rainrate ( cm ) Solar ( W/m2 )
Hoch2,8 2,1 24,0 SSW ( 1085/1876 ) 24,0 1004,2 95 0,41 79
Durchchnittswerte1,3 0,1 9,0 SSW #107/209 8,7 1001,8 92 0,60 37 #85/209
Wenig0,1 -1,7 -   1,0 1000,6 82 -  
Tägliche Tabular details for Mittwoch 08 Dezember 2021
Zeit Temp. ( °C ) Dew pt. ( °C ) Wind ( km/h ) von Windböen ( km/h ) Luftdruck ( hPa ) Humid.( % ) Rainrate ( cm ) Solar ( W/m2 )
00:04 0,7 -1,2 15,0 SSW 15,0 1004,2 87 - -
00:09 0,7 -1,2 20,0 SSW 14,0 1004,1 87 - -
00:14 0,7 -1,3 20,0 SSW 21,0 1003,9 86 - -
00:19 0,8 -1,3 19,0 SSW 14,0 1003,8 86 - -
00:24 0,8 -1,3 17,0 SSW 19,0 1003,8 86 - -
00:29 0,8 -1,3 17,0 SSW 16,0 1003,7 86 - -
00:34 0,8 -1,3 20,0 Süden 15,0 1003,5 86 - -
00:39 0,8 -1,4 19,0 Süden 21,0 1003,3 85 - -
00:44 0,9 -1,3 15,0 Süden 19,0 1003,1 85 - -
00:49 0,9 -1,3 17,0 Süden 15,0 1003,0 85 - -
00:54 0,9 -1,4 19,0 Süden 16,0 1002,9 85 - -
00:59 0,9 -1,5 19,0 Süden 19,0 1002,8 84 - -
01:04 0,9 -1,5 17,0 Süden 19,0 1002,7 84 - -
01:09 0,9 -1,5 20,0 Süden 15,0 1002,7 84 - -
01:14 0,9 -1,4 22,0 Süden 21,0 1002,5 84 - -
01:19 0,9 -1,4 15,0 Süden 23,0 1002,5 84 - -
01:24 0,9 -1,4 15,0 Süden 15,0 1002,3 84 - -
01:29 0,9 -1,4 19,0 Süden 13,0 1002,3 84 - -
01:34 0,9 -1,6 20,0 Süden 19,0 1002,2 83 - -
01:39 1,0 -1,6 17,0 Süden 21,0 1002,1 83 - -
01:44 1,0 -1,6 19,0 Süden 13,0 1002,0 83 - -
01:49 1,0 -1,6 17,0 Süden 19,0 1001,9 83 - -
01:54 1,0 -1,6 17,0 Süden 16,0 1001,9 83 - -
01:59 1,0 -1,6 11,0 SSW 13,0 1002,4 83 - -
02:04 1,0 -1,6 12,0 SSW 10,0 1002,6 83 - -
02:09 1,1 -1,7 15,0 SSW 12,0 1002,6 82 - -
02:14 1,1 -1,7 15,0 SSW 15,0 1002,6 82 - -
02:19 1,1 -1,7 10,0 SSW 15,0 1002,6 82 - -
02:24 1,1 -1,7 14,0 SSW 11,0 1002,5 82 - -
02:29 1,1 -1,7 12,0 SSW 13,0 1002,5 82 - -
02:34 1,1 -1,7 15,0 SSW 12,0 1002,4 82 - -
02:39 1,1 -1,6 15,0 SSW 15,0 1002,5 82 - -
02:44 1,1 -1,6 15,0 SSW 15,0 1002,4 82 - -
02:49 1,1 -1,5 24,0 SSW 15,0 1002,3 83 - -
02:54 1,1 -1,4 15,0 SSW 24,0 1002,4 84 - -
02:59 0,9 -1,3 15,0 SSW 15,0 1002,3 85 - -
03:04 0,8 -1,2 20,0 SSW 15,0 1002,5 86 - -
03:09 0,7 -1,2 20,0 SSW 21,0 1002,5 87 - -
03:14 0,7 -1,2 12,0 SSW 19,0 1002,4 87 - -
03:19 0,6 -1,3 17,0 SSW 14,0 1002,3 87 - -
03:24 0,6 -1,3 17,0 SSW 16,0 1002,3 88 - -
03:29 0,4 -1,3 13,0 SSW 16,0 1002,3 88 - -
03:34 0,4 -1,3 15,0 SSW 12,0 1002,2 88 - -
03:39 0,4 -1,4 15,0 SSW 15,0 1002,1 88 - -
03:44 0,3 -1,3 15,0 SSW 15,0 1002,1 89 - -
03:49 0,3 -1,3 12,0 SSW 13,0 1001,9 89 - -
03:54 0,3 -1,3 14,0 SSW 11,0 1001,9 89 - -
03:59 0,2 -1,4 14,0 SSW 13,0 1001,9 89 - -
04:04 0,2 -1,2 14,0 SSW 13,0 1001,8 90 - -
04:09 0,2 -1,2 9,0 SSW 13,0 1001,8 90 - -
04:14 0,2 -1,2 10,0 SSW 10,0 1001,7 90 - -
04:19 0,2 -1,3 12,0 SSW 10,0 1001,8 90 - -
04:24 0,2 -1,3 11,0 Süden 11,0 1001,8 90 - -
04:29 0,2 -1,3 12,0 Süden 10,0 1001,8 90 - -
04:34 0,2 -1,1 14,0 SSW 11,0 1001,8 91 - -
04:39 0,2 -1,2 10,0 Süden 13,0 1001,8 91 - -
04:44 0,1 -1,2 15,0 Süden 10,0 1001,8 91 - -
04:49 0,1 -1,2 10,0 Süden 15,0 1001,8 91 - -
04:54 0,1 -1,2 10,0 SSW 10,0 1001,8 91 - -
04:59 0,2 -1,1 12,0 SSW 10,0 1001,7 91 - -
05:04 0,2 -1,1 12,0 SSW 11,0 1001,7 91 - -
05:09 0,2 -1,1 10,0 Süden 11,0 1001,6 91 - -
05:14 0,2 -1,1 7,0 SSW 10,0 1001,7 91 - -
05:19 0,2 -1,1 6,0 SSW 8,0 1001,7 91 - -
05:24 0,2 -1,1 7,0 SSW 6,0 1001,7 91 - -
05:29 0,2 -1,1 6,0 SSW 8,0 1001,7 91 - -
05:34 0,2 -1,1 6,0 SSW 5,0 1001,7 91 - -
05:39 0,2 -0,9 6,0 SSW 5,0 1001,7 92 - -
05:44 0,2 -0,9 6,0 SSW 5,0 1001,8 92 - -
05:49 0,2 -0,9 7,0 SSW 6,0 1001,9 92 - -
05:54 0,3 -0,9 9,0 SSW 8,0 1001,8 92 - -
05:59 0,3 -0,9 6,0 Süden 10,0 1001,8 92 - -
06:04 0,3 -0,9 6,0 Süden 5,0 1001,8 92 - -
06:09 0,3 -0,9 4,0 Süden 5,0 1001,7 92 - -
06:14 0,3 -0,9 7,0 Süden 5,0 1001,7 92 - -
06:19 0,3 -0,9 7,0 Süden 8,0 1001,7 92 - -
06:24 0,3 -0,9 7,0 Süden 6,0 1001,7 92 - -
06:29 0,3 -0,9 7,0 Süden 8,0 1001,7 92 - -
06:34 0,3 -0,8 6,0 SSW 8,0 1001,7 92 - -
06:39 0,3 -0,8 6,0 Süden 5,0 1001,7 92 - -
06:44 0,3 -0,7 8,0 SSW 6,0 1001,7 93 - -
06:49 0,3 -0,7 9,0 SSW 10,0 1001,7 93 - -
06:54 0,4 -0,6 6,0 SSW 8,0 1001,7 93 - -
06:59 0,4 -0,6 6,0 SSW 5,0 1001,6 93 - -
07:04 0,4 -0,6 4,0 SSW 5,0 1001,6 93 - -
07:09 0,4 -0,6 4,0 SSW 3,0 1001,5 93 - -
07:14 0,4 -0,6 4,0 SSW 3,0 1001,5 93 - -
07:19 0,4 -0,6 10,0 SSW 7,0 1001,6 93 - -
07:24 0,5 -0,5 9,0 SSW 10,0 1001,7 93 - -
07:29 0,6 -0,4 7,0 SSW 10,0 1001,6 93 - -
07:34 0,6 -0,4 5,0 SSW 8,0 1001,6 93 - -
07:39 0,6 -0,4 4,0 SSW 5,0 1001,4 93 - -
07:44 0,6 -0,4 2,0 SSW 3,0 1001,5 93 - -
07:49 0,7 -0,3 4,0 SSW 2,0 1001,4 93 - -
07:54 0,6 -0,4 4,0 SSW 3,0 1001,4 93 - -
07:59 0,7 -0,3   Windstille 3,0 1001,5 93 - -
08:04 0,7 -0,2 6,0 SSW 2,0 1001,6 94 - -
08:09 0,7 -0,2 2,0 SSW 5,0 1001,6 94 - -
08:14 0,7 -0,1 4,0 Süden 3,0 1001,6 94 - -
08:19 0,7 -0,1 4,0 SSO 3,0 1001,5 94 - -
08:24 0,7 -0,1 4,0 SSO 3,0 1001,4 94 - -
08:29 0,8 -0,1 7,0 SSO 3,0 1001,6 94 - -
08:34 0,8 0,0 7,0 Süden 8,0 1001,7 94 - -
08:39 0,9 0,1 7,0 SSW 8,0 1001,9 94 - -
08:44 0,9 0,1 6,0 SSW 8,0 1002,0 94 - 5
08:49 1,0 0,2 4,0 SSW 5,0 1002,2 94 - 7
08:54 1,1 0,2 6,0 SSW 5,0 1002,2 94 - 11
08:59 1,2 0,3 9,0 SSW 6,0 1002,0 94 - 12
09:04 1,3 0,4 9,0 SSW 10,0 1002,0 94 - 12
09:09 1,3 0,5 7,0 SSW 10,0 1001,9 94 - 14
09:14 1,4 0,7 10,0 SSW 8,0 1001,8 95 - 18
09:19 1,4 0,7 9,0 SSW 10,0 1001,7 95 - 18
09:24 1,5 0,8 9,0 SSW 10,0 1001,6 95 - 19
09:29 1,5 0,8 10,0 SSW 10,0 1001,5 95 - 21
09:34 1,5 0,8 10,0 SSW 10,0 1001,5 95 - 25
09:39 1,5 0,8 9,0 SSW 10,0 1001,7 95 - 25
09:44 1,6 0,8 9,0 SW 8,0 1001,8 95 0,20 33
09:49 1,7 0,9 10,0 SSW 10,0 1002,0 95 0,20 33
09:54 1,7 1,0 10,0 SSW 10,0 1002,1 95 0,20 30
09:59 1,7 1,0 7,0 SSW 10,0 1001,7 95 0,20 26
10:04 1,8 1,1 10,0 SSW 8,0 1001,8 95 0,20 37
10:09 1,9 1,2 8,0 SSW 10,0 1001,7 95 0,41 46
10:14 1,9 1,2 10,0 SSW 8,0 1001,9 95 0,41 46
10:19 1,9 1,2 7,0 SSW 10,0 1001,9 95 0,41 46
10:24 2,1 1,3 7,0 Süden 5,0 1001,7 95 0,41 35
10:29 2,1 1,4 6,0 Süden 8,0 1001,7 95 0,41 40
10:34 2,2 1,5 8,0 SSW 5,0 1001,7 95 0,41 74
10:39 2,3 1,6 10,0 SSW 10,0 1001,7 95 0,41 79
10:44 2,4 1,7 12,0 SSW 10,0 1001,7 95 0,41 77
10:49 2,4 1,7 14,0 SSW 11,0 1001,8 95 0,20 42
10:54 2,4 1,7 15,0 SSW 13,0 1001,9 95 0,20 49
10:59 2,4 1,7 17,0 SSW 15,0 1002,0 95 0,20 54
11:04 2,4 1,7 17,0 SSW 16,0 1002,1 95 0,20 53
11:09 2,6 1,8 14,0 SW 15,0 1002,3 95 0,20 51
11:14 2,6 1,9 10,0 SSW 13,0 1002,7 95 - 53
11:19 2,6 1,9 9,0 SSW 10,0 1002,1 95 - 63
11:24 2,7 1,9 9,0 SSW 10,0 1002,1 95 - 65
11:29 2,7 1,9 6,0 SSW 10,0 1002,0 95 - 65
11:34 2,7 2,0 4,0 SSW 5,0 1001,9 95 - 60
11:39 2,7 2,0 5,0 SSW 3,0 1001,9 95 - 53
11:44 2,7 2,0 6,0 SSW 5,0 1001,9 95 - 54
11:49 2,8 2,1 6,0 SSW 5,0 1001,9 95 - 51
11:54 2,8 2,1 6,0 SSW 5,0 1001,9 95 - 47
11:59 2,8 2,1 6,0 SSW 5,0 1001,9 95 - 44
12:04 2,8 2,1 7,0 Süden 5,0 1001,8 95 - 46
12:09 2,8 2,1 7,0 Süden 8,0 1001,8 95 - 58
12:14 2,7 2,0 6,0 Süden 8,0 1001,8 95 - 63
12:19 2,8 2,1 6,0 Süden 5,0 1001,9 95 - 62
12:24 2,8 2,1 6,0 Süden 5,0 1001,9 95 - 49
12:29 2,7 1,8 7,0 Süden 5,0 1001,9 94 - 40
12:34 2,7 1,8 7,0 Süden 8,0 1001,9 94 - 51
12:39 2,7 1,8 7,0 Süden 6,0 1001,7 94 - 54
12:44 2,7 1,8 9,0 SSO 8,0 1001,5 94 - 58
12:49 2,7 1,8 7,0 Süden 10,0 1001,5 94 - 58
12:54 2,8 1,9 7,0 SSW 8,0 1001,5 94 - 54
12:59 2,8 1,9 6,0 SSW 8,0 1001,4 94 - 54
13:04 2,8 1,9 6,0 SSW 5,0 1001,4 94 - 49
13:09 2,8 1,9 6,0 SSW 5,0 1001,4 94 - 44
13:14 2,8 1,9 6,0 Süden 5,0 1001,5 94 - 39
13:19 2,8 1,9 6,0 Süden 5,0 1001,5 94 - 44
13:24 2,7 1,8 4,0 Süden 5,0 1001,4 94 - 51
13:29 2,7 1,8 4,0 Süden 3,0 1001,4 94 - 51
13:34 2,7 1,8 2,0 Süden 3,0 1001,4 94 - 39
13:39 2,6 1,7 2,0 Süden 2,0 1001,4 94 - 32
13:44 2,6 1,7 2,0 Süden 2,0 1001,4 94 - 32
13:49 2,6 1,7 2,0 Süden 1,0 1001,3 94 - 35
13:54 2,6 1,7 4,0 Süden 3,0 1001,3 94 - 35
13:59 2,7 1,8 4,0 Süden 3,0 1001,2 94 - 30
14:04 2,6 1,7 4,0 Süden 3,0 1001,2 94 - 28
14:09 2,6 1,7 4,0 Süden 3,0 1001,2 94 - 30
14:14 2,6 1,7 4,0 Süden 3,0 1001,1 94 - 25
14:19 2,6 1,7 6,0 Süden 4,0 1001,1 94 - 23
14:24 2,5 1,6 6,0 Süden 5,0 1001,1 94 - 25
14:29 2,4 1,6 3,0 Süden 5,0 1001,1 94 - 25
14:34 2,4 1,5 6,0 Süden 4,0 1001,0 94 - 23
14:39 2,3 1,4 4,0 Süden 5,0 1000,9 94 - 25
14:44 2,3 1,4 4,0 Süden 3,0 1000,8 94 - 25
14:49 2,2 1,3 4,0 Süden 3,0 1000,8 94 - 21
14:54 2,2 1,3 2,0 Süden 3,0 1000,7 94 - 18
14:59 2,2 1,3 2,0 Süden 2,0 1000,6 94 - 18
15:04 2,1 1,2 4,0 Süden 2,0 1000,6 94 - 18
15:09 2,1 1,2 7,0 Süden 5,0 1000,7 94 - 16
15:14 2,1 1,2 7,0 OSO 8,0 1000,7 94 - 14
15:19 2,0 1,1 7,0 ONO 8,0 1000,7 94 - 12
15:24 1,9 1,1 6,0 ONO 8,0 1000,7 94 - 11
15:29 1,9 1,1 6,0 NO 5,0 1000,8 94 - 11
15:34 1,9 1,0 4,0 ONO 3,0 1000,9 94 - 9
15:39 1,8 0,9 2,0 ONO 3,0 1000,9 94 - 7
15:44 1,8 0,9 4,0 ONO 2,0 1000,9 94 - 5
15:49 1,7 0,9 6,0 Osten 4,0 1001,0 94 - -
15:54 1,7 0,8 4,0 OSO 5,0 1001,1 94 - -
15:59 1,7 0,8 4,0 OSO 3,0 1001,1 94 - -
16:04 1,7 0,8 4,0 OSO 3,0 1001,2 94 - -
16:09 1,6 0,7 5,0 OSO 3,0 1001,1 94 - -
16:14 1,6 0,7 6,0 OSO 5,0 1001,2 94 - -
16:19 1,6 0,7 2,0 OSO 3,0 1001,2 94 - -
16:24 1,6 0,7 4,0 OSO 3,0 1001,2 94 - -
16:29 1,5 0,7 6,0 OSO 4,0 1001,3 94 - -
16:34 1,4 0,6 6,0 OSO 5,0 1001,3 94 - -
16:39 1,4 0,6 6,0 OSO 5,0 1001,5 94 - -
16:44 1,4 0,6 6,0 OSO 5,0 1001,5 94 - -
16:47 1,3 0,5 6,0 OSO 5,0 1001,5 94 - -
16:55 1,3 0,4 3,0 OSO 5,0 1001,3 94 - -
17:04 1,2 0,4 7,0 OSO 5,0 1001,4 94 - -
17:09 1,2 0,4 6,0 OSO 8,0 1001,5 94 - -
17:14 1,2 0,4 4,0 OSO 5,0 1001,7 95 - -
17:19 1,2 0,4 6,0 OSO 4,0 1001,8 95 - -
17:24 1,2 0,4 6,0 OSO 5,0 1001,7 95 - -
17:29 1,2 0,4 6,0 OSO 5,0 1001,8 95 - -
Tägliche Zusammenfassung für Mittwoch 08 Dezember 2021
Zeit Temp. ( °C ) Dew pt. ( °C ) Wind ( km/h ) von Windböen ( km/h ) Luftdruck ( hPa ) Humid.( % ) Rainrate ( cm ) Solar ( W/m2 )
Hoch2,8 2,1 24,0 SSW ( 1085/1876 ) 24,0 1004,2 95 0,41 79
Durchchnittswerte1,3 0,1 9,0 SSW #107/209 8,7 1001,8 92 0,60 37 #85/209
Wenig0,1 -1,7 -   1,0 1000,6 82 -  
Tägliche Tabular details for Mittwoch 08 Dezember 2021
Zeit Temp. ( °C ) Dew pt. ( °C ) Wind ( km/h ) von Windböen ( km/h ) Luftdruck ( hPa ) Humid.( % ) Rainrate ( cm ) Solar ( W/m2 )
00:04 0,7 -1,2 15,0 SSW 15,0 1004,2 87 - -
00:09 0,7 -1,2 20,0 SSW 14,0 1004,1 87 - -
00:14 0,7 -1,3 20,0 SSW 21,0 1003,9 86 - -
00:19 0,8 -1,3 19,0 SSW 14,0 1003,8 86 - -
00:24 0,8 -1,3 17,0 SSW 19,0 1003,8 86 - -
00:29 0,8 -1,3 17,0 SSW 16,0 1003,7 86 - -
00:34 0,8 -1,3 20,0 Süden 15,0 1003,5 86 - -
00:39 0,8 -1,4 19,0 Süden 21,0 1003,3 85 - -
00:44 0,9 -1,3 15,0 Süden 19,0 1003,1 85 - -
00:49 0,9 -1,3 17,0 Süden 15,0 1003,0 85 - -
00:54 0,9 -1,4 19,0 Süden 16,0 1002,9 85 - -
00:59 0,9 -1,5 19,0 Süden 19,0 1002,8 84 - -
01:04 0,9 -1,5 17,0 Süden 19,0 1002,7 84 - -
01:09 0,9 -1,5 20,0 Süden 15,0 1002,7 84 - -
01:14 0,9 -1,4 22,0 Süden 21,0 1002,5 84 - -
01:19 0,9 -1,4 15,0 Süden 23,0 1002,5 84 - -
01:24 0,9 -1,4 15,0 Süden 15,0 1002,3 84 - -
01:29 0,9 -1,4 19,0 Süden 13,0 1002,3 84 - -
01:34 0,9 -1,6 20,0 Süden 19,0 1002,2 83 - -
01:39 1,0 -1,6 17,0 Süden 21,0 1002,1 83 - -
01:44 1,0 -1,6 19,0 Süden 13,0 1002,0 83 - -
01:49 1,0 -1,6 17,0 Süden 19,0 1001,9 83 - -
01:54 1,0 -1,6 17,0 Süden 16,0 1001,9 83 - -
01:59 1,0 -1,6 11,0 SSW 13,0 1002,4 83 - -
02:04 1,0 -1,6 12,0 SSW 10,0 1002,6 83 - -
02:09 1,1 -1,7 15,0 SSW 12,0 1002,6 82 - -
02:14 1,1 -1,7 15,0 SSW 15,0 1002,6 82 - -
02:19 1,1 -1,7 10,0 SSW 15,0 1002,6 82 - -
02:24 1,1 -1,7 14,0 SSW 11,0 1002,5 82 - -
02:29 1,1 -1,7 12,0 SSW 13,0 1002,5 82 - -
02:34 1,1 -1,7 15,0 SSW 12,0 1002,4 82 - -
02:39 1,1 -1,6 15,0 SSW 15,0 1002,5 82 - -
02:44 1,1 -1,6 15,0 SSW 15,0 1002,4 82 - -
02:49 1,1 -1,5 24,0 SSW 15,0 1002,3 83 - -
02:54 1,1 -1,4 15,0 SSW 24,0 1002,4 84 - -
02:59 0,9 -1,3 15,0 SSW 15,0 1002,3 85 - -
03:04 0,8 -1,2 20,0 SSW 15,0 1002,5 86 - -
03:09 0,7 -1,2 20,0 SSW 21,0 1002,5 87 - -
03:14 0,7 -1,2 12,0 SSW 19,0 1002,4 87 - -
03:19 0,6 -1,3 17,0 SSW 14,0 1002,3 87 - -
03:24 0,6 -1,3 17,0 SSW 16,0 1002,3 88 - -
03:29 0,4 -1,3 13,0 SSW 16,0 1002,3 88 - -
03:34 0,4 -1,3 15,0 SSW 12,0 1002,2 88 - -
03:39 0,4 -1,4 15,0 SSW 15,0 1002,1 88 - -
03:44 0,3 -1,3 15,0 SSW 15,0 1002,1 89 - -
03:49 0,3 -1,3 12,0 SSW 13,0 1001,9 89 - -
03:54 0,3 -1,3 14,0 SSW 11,0 1001,9 89 - -
03:59 0,2 -1,4 14,0 SSW 13,0 1001,9 89 - -
04:04 0,2 -1,2 14,0 SSW 13,0 1001,8 90 - -
04:09 0,2 -1,2 9,0 SSW 13,0 1001,8 90 - -
04:14 0,2 -1,2 10,0 SSW 10,0 1001,7 90 - -
04:19 0,2 -1,3 12,0 SSW 10,0 1001,8 90 - -
04:24 0,2 -1,3 11,0 Süden 11,0 1001,8 90 - -
04:29 0,2 -1,3 12,0 Süden 10,0 1001,8 90 - -
04:34 0,2 -1,1 14,0 SSW 11,0 1001,8 91 - -
04:39 0,2 -1,2 10,0 Süden 13,0 1001,8 91 - -
04:44 0,1 -1,2 15,0 Süden 10,0 1001,8 91 - -
04:49 0,1 -1,2 10,0 Süden 15,0 1001,8 91 - -
04:54 0,1 -1,2 10,0 SSW 10,0 1001,8 91 - -
04:59 0,2 -1,1 12,0 SSW 10,0 1001,7 91 - -
05:04 0,2 -1,1 12,0 SSW 11,0 1001,7 91 - -
05:09 0,2 -1,1 10,0 Süden 11,0 1001,6 91 - -
05:14 0,2 -1,1 7,0 SSW 10,0 1001,7 91 - -
05:19 0,2 -1,1 6,0 SSW 8,0 1001,7 91 - -
05:24 0,2 -1,1 7,0 SSW 6,0 1001,7 91 - -
05:29 0,2 -1,1 6,0 SSW 8,0 1001,7 91 - -
05:34 0,2 -1,1 6,0 SSW 5,0 1001,7 91 - -
05:39 0,2 -0,9 6,0 SSW 5,0 1001,7 92 - -
05:44 0,2 -0,9 6,0 SSW 5,0 1001,8 92 - -
05:49 0,2 -0,9 7,0 SSW 6,0 1001,9 92 - -
05:54 0,3 -0,9 9,0 SSW 8,0 1001,8 92 - -
05:59 0,3 -0,9 6,0 Süden 10,0 1001,8 92 - -
06:04 0,3 -0,9 6,0 Süden 5,0 1001,8 92 - -
06:09 0,3 -0,9 4,0 Süden 5,0 1001,7 92 - -
06:14 0,3 -0,9 7,0 Süden 5,0 1001,7 92 - -
06:19 0,3 -0,9 7,0 Süden 8,0 1001,7 92 - -
06:24 0,3 -0,9 7,0 Süden 6,0 1001,7 92 - -
06:29 0,3 -0,9 7,0 Süden 8,0 1001,7 92 - -
06:34 0,3 -0,8 6,0 SSW 8,0 1001,7 92 - -
06:39 0,3 -0,8 6,0 Süden 5,0 1001,7 92 - -
06:44 0,3 -0,7 8,0 SSW 6,0 1001,7 93 - -
06:49 0,3 -0,7 9,0 SSW 10,0 1001,7 93 - -
06:54 0,4 -0,6 6,0 SSW 8,0 1001,7 93 - -
06:59 0,4 -0,6 6,0 SSW 5,0 1001,6 93 - -
07:04 0,4 -0,6 4,0 SSW 5,0 1001,6 93 - -
07:09 0,4 -0,6 4,0 SSW 3,0 1001,5 93 - -
07:14 0,4 -0,6 4,0 SSW 3,0 1001,5 93 - -
07:19 0,4 -0,6 10,0 SSW 7,0 1001,6 93 - -
07:24 0,5 -0,5 9,0 SSW 10,0 1001,7 93 - -
07:29 0,6 -0,4 7,0 SSW 10,0 1001,6 93 - -
07:34 0,6 -0,4 5,0 SSW 8,0 1001,6 93 - -
07:39 0,6 -0,4 4,0 SSW 5,0 1001,4 93 - -
07:44 0,6 -0,4 2,0 SSW 3,0 1001,5 93 - -
07:49 0,7 -0,3 4,0 SSW 2,0 1001,4 93 - -
07:54 0,6 -0,4 4,0 SSW 3,0 1001,4 93 - -
07:59 0,7 -0,3   Windstille 3,0 1001,5 93 - -
08:04 0,7 -0,2 6,0 SSW 2,0 1001,6 94 - -
08:09 0,7 -0,2 2,0 SSW 5,0 1001,6 94 - -
08:14 0,7 -0,1 4,0 Süden 3,0 1001,6 94 - -
08:19 0,7 -0,1 4,0 SSO 3,0 1001,5 94 - -
08:24 0,7 -0,1 4,0 SSO 3,0 1001,4 94 - -
08:29 0,8 -0,1 7,0 SSO 3,0 1001,6 94 - -
08:34 0,8 0,0 7,0 Süden 8,0 1001,7 94 - -
08:39 0,9 0,1 7,0 SSW 8,0 1001,9 94 - -
08:44 0,9 0,1 6,0 SSW 8,0 1002,0 94 - 5
08:49 1,0 0,2 4,0 SSW 5,0 1002,2 94 - 7
08:54 1,1 0,2 6,0 SSW 5,0 1002,2 94 - 11
08:59 1,2 0,3 9,0 SSW 6,0 1002,0 94 - 12
09:04 1,3 0,4 9,0 SSW 10,0 1002,0 94 - 12
09:09 1,3 0,5 7,0 SSW 10,0 1001,9 94 - 14
09:14 1,4 0,7 10,0 SSW 8,0 1001,8 95 - 18
09:19 1,4 0,7 9,0 SSW 10,0 1001,7 95 - 18
09:24 1,5 0,8 9,0 SSW 10,0 1001,6 95 - 19
09:29 1,5 0,8 10,0 SSW 10,0 1001,5 95 - 21
09:34 1,5 0,8 10,0 SSW 10,0 1001,5 95 - 25
09:39 1,5 0,8 9,0 SSW 10,0 1001,7 95 - 25
09:44 1,6 0,8 9,0 SW 8,0 1001,8 95 0,20 33
09:49 1,7 0,9 10,0 SSW 10,0 1002,0 95 0,20 33
09:54 1,7 1,0 10,0 SSW 10,0 1002,1 95 0,20 30
09:59 1,7 1,0 7,0 SSW 10,0 1001,7 95 0,20 26
10:04 1,8 1,1 10,0 SSW 8,0 1001,8 95 0,20 37
10:09 1,9 1,2 8,0 SSW 10,0 1001,7 95 0,41 46
10:14 1,9 1,2 10,0 SSW 8,0 1001,9 95 0,41 46
10:19 1,9 1,2 7,0 SSW 10,0 1001,9 95 0,41 46
10:24 2,1 1,3 7,0 Süden 5,0 1001,7 95 0,41 35
10:29 2,1 1,4 6,0 Süden 8,0 1001,7 95 0,41 40
10:34 2,2 1,5 8,0 SSW 5,0 1001,7 95 0,41 74
10:39 2,3 1,6 10,0 SSW 10,0 1001,7 95 0,41 79
10:44 2,4 1,7 12,0 SSW 10,0 1001,7 95 0,41 77
10:49 2,4 1,7 14,0 SSW 11,0 1001,8 95 0,20 42
10:54 2,4 1,7 15,0 SSW 13,0 1001,9 95 0,20 49
10:59 2,4 1,7 17,0 SSW 15,0 1002,0 95 0,20 54
11:04 2,4 1,7 17,0 SSW 16,0 1002,1 95 0,20 53
11:09 2,6 1,8 14,0 SW 15,0 1002,3 95 0,20 51
11:14 2,6 1,9 10,0 SSW 13,0 1002,7 95 - 53
11:19 2,6 1,9 9,0 SSW 10,0 1002,1 95 - 63
11:24 2,7 1,9 9,0 SSW 10,0 1002,1 95 - 65
11:29 2,7 1,9 6,0 SSW 10,0 1002,0 95 - 65
11:34 2,7 2,0 4,0 SSW 5,0 1001,9 95 - 60
11:39 2,7 2,0 5,0 SSW 3,0 1001,9 95 - 53
11:44 2,7 2,0 6,0 SSW 5,0 1001,9 95 - 54
11:49 2,8 2,1 6,0 SSW 5,0 1001,9 95 - 51
11:54 2,8 2,1 6,0 SSW 5,0 1001,9 95 - 47
11:59 2,8 2,1 6,0 SSW 5,0 1001,9 95 - 44
12:04 2,8 2,1 7,0 Süden 5,0 1001,8 95 - 46
12:09 2,8 2,1 7,0 Süden 8,0 1001,8 95 - 58
12:14 2,7 2,0 6,0 Süden 8,0 1001,8 95 - 63
12:19 2,8 2,1 6,0 Süden 5,0 1001,9 95 - 62
12:24 2,8 2,1 6,0 Süden 5,0 1001,9 95 - 49
12:29 2,7 1,8 7,0 Süden 5,0 1001,9 94 - 40
12:34 2,7 1,8 7,0 Süden 8,0 1001,9 94 - 51
12:39 2,7 1,8 7,0 Süden 6,0 1001,7 94 - 54
12:44 2,7 1,8 9,0 SSO 8,0 1001,5 94 - 58
12:49 2,7 1,8 7,0 Süden 10,0 1001,5 94 - 58
12:54 2,8 1,9 7,0 SSW 8,0 1001,5 94 - 54
12:59 2,8 1,9 6,0 SSW 8,0 1001,4 94 - 54
13:04 2,8 1,9 6,0 SSW 5,0 1001,4 94 - 49
13:09 2,8 1,9 6,0 SSW 5,0 1001,4 94 - 44
13:14 2,8 1,9 6,0 Süden 5,0 1001,5 94 - 39
13:19 2,8 1,9 6,0 Süden 5,0 1001,5 94 - 44
13:24 2,7 1,8 4,0 Süden 5,0 1001,4 94 - 51
13:29 2,7 1,8 4,0 Süden 3,0 1001,4 94 - 51
13:34 2,7 1,8 2,0 Süden 3,0 1001,4 94 - 39
13:39 2,6 1,7 2,0 Süden 2,0 1001,4 94 - 32
13:44 2,6 1,7 2,0 Süden 2,0 1001,4 94 - 32
13:49 2,6 1,7 2,0 Süden 1,0 1001,3 94 - 35
13:54 2,6 1,7 4,0 Süden 3,0 1001,3 94 - 35
13:59 2,7 1,8 4,0 Süden 3,0 1001,2 94 - 30
14:04 2,6 1,7 4,0 Süden 3,0 1001,2 94 - 28
14:09 2,6 1,7 4,0 Süden 3,0 1001,2 94 - 30
14:14 2,6 1,7 4,0 Süden 3,0 1001,1 94 - 25
14:19 2,6 1,7 6,0 Süden 4,0 1001,1 94 - 23
14:24 2,5 1,6 6,0 Süden 5,0 1001,1 94 - 25
14:29 2,4 1,6 3,0 Süden 5,0 1001,1 94 - 25
14:34 2,4 1,5 6,0 Süden 4,0 1001,0 94 - 23
14:39 2,3 1,4 4,0 Süden 5,0 1000,9 94 - 25
14:44 2,3 1,4 4,0 Süden 3,0 1000,8 94 - 25
14:49 2,2 1,3 4,0 Süden 3,0 1000,8 94 - 21
14:54 2,2 1,3 2,0 Süden 3,0 1000,7 94 - 18
14:59 2,2 1,3 2,0 Süden 2,0 1000,6 94 - 18
15:04 2,1 1,2 4,0 Süden 2,0 1000,6 94 - 18
15:09 2,1 1,2 7,0 Süden 5,0 1000,7 94 - 16
15:14 2,1 1,2 7,0 OSO 8,0 1000,7 94 - 14
15:19 2,0 1,1 7,0 ONO 8,0 1000,7 94 - 12
15:24 1,9 1,1 6,0 ONO 8,0 1000,7 94 - 11
15:29 1,9 1,1 6,0 NO 5,0 1000,8 94 - 11
15:34 1,9 1,0 4,0 ONO 3,0 1000,9 94 - 9
15:39 1,8 0,9 2,0 ONO 3,0 1000,9 94 - 7
15:44 1,8 0,9 4,0 ONO 2,0 1000,9 94 - 5
15:49 1,7 0,9 6,0 Osten 4,0 1001,0 94 - -
15:54 1,7 0,8 4,0 OSO 5,0 1001,1 94 - -
15:59 1,7 0,8 4,0 OSO 3,0 1001,1 94 - -
16:04 1,7 0,8 4,0 OSO 3,0 1001,2 94 - -
16:09 1,6 0,7 5,0 OSO 3,0 1001,1 94 - -
16:14 1,6 0,7 6,0 OSO 5,0 1001,2 94 - -
16:19 1,6 0,7 2,0 OSO 3,0 1001,2 94 - -
16:24 1,6 0,7 4,0 OSO 3,0 1001,2 94 - -
16:29 1,5 0,7 6,0 OSO 4,0 1001,3 94 - -
16:34 1,4 0,6 6,0 OSO 5,0 1001,3 94 - -
16:39 1,4 0,6 6,0 OSO 5,0 1001,5 94 - -
16:44 1,4 0,6 6,0 OSO 5,0 1001,5 94 - -
16:47 1,3 0,5 6,0 OSO 5,0 1001,5 94 - -
16:55 1,3 0,4 3,0 OSO 5,0 1001,3 94 - -
17:04 1,2 0,4 7,0 OSO 5,0 1001,4 94 - -
17:09 1,2 0,4 6,0 OSO 8,0 1001,5 94 - -
17:14 1,2 0,4 4,0 OSO 5,0 1001,7 95 - -
17:19 1,2 0,4 6,0 OSO 4,0 1001,8 95 - -
17:24 1,2 0,4 6,0 OSO 5,0 1001,7 95 - -
17:29 1,2 0,4 6,0 OSO 5,0 1001,8 95 - -

Download your copy of this data-set  here

Our weather-data as stored at Weather Underground. Script entwickelt von Jim McMurry. Angepasst für das Template von Leuven-Template.eu

Sie finden unser Wetter-Infos auch auf:

netzwerkwettercom

European Weather Network

WeatherCloud

AWEKAS

Citizen Weather Observer Program (CWOP)

HAMweather, WeatherForYou, PWS Weather

Von uns verwendete Ausrüstung:

Wetterstation
Davis VP2

Wetterprogramm
Weather Display

Davis VP2

Weather Display